WWP997 SEQM-MPTO

Flight info

Callsign WWP997
Flight time N/A
Altitude 40000
Route NEGAL ENSOL UM674 TOKUT MILAT SIRIL SIRI3C
Aircraft B738/M-SDE3FGHIRWY/S

Departure

Time 2026-04-27 16:45
Airport Mariscal Sucre International Airport (SEQM)

Arrival

Time N/A
Airport Tocumen International Airport (MPTO)
Time Latitude Longitude Altitude Speed Heading
2026-04-27 16:18 -0.12613 -78.35917 7857 ft 0 kts 266°
2026-04-27 16:34 -0.12613 -78.35915 7857 ft 3 kts 266°
2026-04-27 16:34 -0.12611 -78.35889 7857 ft 4 kts 262°
2026-04-27 16:35 -0.12606 -78.35862 7857 ft 4 kts 254°
2026-04-27 16:35 -0.12596 -78.35838 7856 ft 4 kts 230°
2026-04-27 16:35 -0.12581 -78.35827 7856 ft 0 kts 189°
2026-04-27 16:38 -0.12589 -78.35828 7856 ft 4 kts 190°
2026-04-27 16:38 -0.12616 -78.35830 7857 ft 4 kts 181°
2026-04-27 16:38 -0.12677 -78.35820 7859 ft 10 kts 147°
2026-04-27 16:38 -0.12697 -78.35728 7860 ft 12 kts 95°
2026-04-27 16:39 -0.12756 -78.35681 7862 ft 12 kts 180°
2026-04-27 16:39 -0.12839 -78.35678 7865 ft 12 kts 174°
2026-04-27 16:39 -0.12919 -78.35674 7868 ft 11 kts 177°
2026-04-27 16:39 -0.13047 -78.35669 7873 ft 24 kts 177°
2026-04-27 16:40 -0.13210 -78.35662 7879 ft 23 kts 177°
2026-04-27 16:40 -0.13315 -78.35657 7883 ft 24 kts 177°
2026-04-27 16:40 -0.13479 -78.35650 7888 ft 23 kts 177°
2026-04-27 16:40 -0.13593 -78.35630 7892 ft 16 kts 169°
2026-04-27 16:41 -0.13721 -78.35628 7897 ft 3 kts 180°
2026-04-27 16:41 -0.13752 -78.35624 7902 ft 11 kts 159°
2026-04-27 16:41 -0.13795 -78.35564 7903 ft 11 kts 143°
2026-04-27 16:41 -0.13867 -78.35554 7902 ft 11 kts 178°
2026-04-27 16:42 -0.13947 -78.35550 7904 ft 13 kts 177°
2026-04-27 16:42 -0.14036 -78.35545 7912 ft 13 kts 176°
2026-04-27 16:42 -0.14123 -78.35540 7914 ft 12 kts 176°
2026-04-27 16:42 -0.14197 -78.35536 7914 ft 4 kts 175°
2026-04-27 16:43 -0.14223 -78.35526 7919 ft 4 kts 153°
2026-04-27 16:43 -0.14248 -78.35497 7916 ft 9 kts 118°
2026-04-27 16:43 -0.14257 -78.35432 7916 ft 10 kts 85°
2026-04-27 16:43 -0.14253 -78.35385 7916 ft 5 kts 80°
2026-04-27 16:44 -0.14223 -78.35368 7916 ft 6 kts 359°
2026-04-27 16:44 -0.14116 -78.35374 7915 ft 45 kts 357°
2026-04-27 16:44 -0.13489 -78.35399 7890 ft 126 kts 358°
2026-04-27 16:44 -0.12434 -78.35440 7976 ft 170 kts 358°
2026-04-27 16:45 -0.11160 -78.35442 8433 ft 195 kts 358°
2026-04-27 16:45 -0.09776 -78.35506 9191 ft 205 kts 355°
2026-04-27 16:45 -0.08358 -78.35838 9782 ft 215 kts 339°
2026-04-27 16:45 -0.06846 -78.36400 10471 ft 248 kts 340°
2026-04-27 16:46 -0.05167 -78.36988 11287 ft 258 kts 341°
2026-04-27 16:46 -0.03442 -78.37576 12136 ft 266 kts 342°
2026-04-27 16:46 -0.01665 -78.38171 13043 ft 272 kts 343°
2026-04-27 16:46 0.00145 -78.38772 13978 ft 276 kts 344°
2026-04-27 16:47 0.01971 -78.39372 14863 ft 279 kts 344°
2026-04-27 16:47 0.03799 -78.39971 15722 ft 282 kts 343°
2026-04-27 16:47 0.05218 -78.40437 16385 ft 283 kts 343°
2026-04-27 16:47 0.06655 -78.40909 17025 ft 256 kts 345°
2026-04-27 16:48 0.08348 -78.41367 17679 ft 254 kts 344°
2026-04-27 16:48 0.10047 -78.42003 18393 ft 267 kts 339°
2026-04-27 16:48 0.11797 -78.42630 19095 ft 261 kts 342°
2026-04-27 16:49 0.15294 -78.43755 20386 ft 268 kts 342°
2026-04-27 16:49 0.17053 -78.44421 21081 ft 272 kts 339°
2026-04-27 16:49 0.18811 -78.45152 21762 ft 276 kts 338°
2026-04-27 16:49 0.20642 -78.45923 22089 ft 295 kts 338°
2026-04-27 16:50 0.22623 -78.46755 22113 ft 324 kts 338°
2026-04-27 16:50 0.24790 -78.47660 22150 ft 351 kts 338°
2026-04-27 16:50 0.27103 -78.48623 22119 ft 364 kts 338°
2026-04-27 16:50 0.29447 -78.49595 22120 ft 363 kts 338°
2026-04-27 16:51 0.31746 -78.50547 22107 ft 362 kts 338°
2026-04-27 16:51 0.34065 -78.51505 22097 ft 361 kts 338°
2026-04-27 16:51 0.36384 -78.52463 22102 ft 360 kts 338°
2026-04-27 16:51 0.38733 -78.53432 22096 ft 360 kts 338°
2026-04-27 16:52 0.41016 -78.54374 22096 ft 360 kts 338°
2026-04-27 16:52 0.43333 -78.55330 22095 ft 360 kts 338°
2026-04-27 16:52 0.45650 -78.56286 22094 ft 361 kts 338°
2026-04-27 16:52 0.47971 -78.57244 22090 ft 361 kts 338°
2026-04-27 16:53 0.50325 -78.58132 22075 ft 362 kts 346°
2026-04-27 16:53 0.52800 -78.58547 22088 ft 360 kts 353°
2026-04-27 16:53 0.55292 -78.58839 22062 ft 361 kts 354°
2026-04-27 16:53 0.57789 -78.59121 22067 ft 361 kts 354°
2026-04-27 16:54 0.60282 -78.59410 22061 ft 361 kts 354°
2026-04-27 16:54 0.62781 -78.59711 22067 ft 361 kts 353°
2026-04-27 16:54 0.65270 -78.60019 22052 ft 361 kts 353°
2026-04-27 16:54 0.67765 -78.60335 22054 ft 361 kts 353°
2026-04-27 16:55 0.70254 -78.60653 22041 ft 361 kts 353°
2026-04-27 16:55 0.72754 -78.60975 22029 ft 361 kts 353°
2026-04-27 16:55 0.75240 -78.61297 22038 ft 361 kts 353°
2026-04-27 16:55 0.77731 -78.61619 22034 ft 361 kts 353°
2026-04-27 16:56 0.80221 -78.61942 22028 ft 360 kts 353°
2026-04-27 16:56 0.82708 -78.62265 22024 ft 360 kts 353°
2026-04-27 16:56 0.85194 -78.62587 22018 ft 360 kts 353°
2026-04-27 16:56 0.87648 -78.62905 22013 ft 361 kts 353°
2026-04-27 16:57 0.90168 -78.63232 22004 ft 361 kts 353°
2026-04-27 16:57 0.92657 -78.63554 21997 ft 361 kts 353°
2026-04-27 16:57 0.95109 -78.63872 21998 ft 360 kts 353°
2026-04-27 16:57 0.97598 -78.64195 21996 ft 360 kts 353°
2026-04-27 16:58 1.00118 -78.64522 21995 ft 360 kts 353°
2026-04-27 16:58 1.02575 -78.64840 21992 ft 360 kts 353°
2026-04-27 16:58 1.05060 -78.65163 21989 ft 360 kts 353°
2026-04-27 16:58 1.07553 -78.65486 21985 ft 360 kts 353°
2026-04-27 16:59 1.10038 -78.65808 21981 ft 360 kts 353°
2026-04-27 16:59 1.12525 -78.66131 21981 ft 360 kts 353°
2026-04-27 16:59 1.15017 -78.66454 21969 ft 360 kts 353°
2026-04-27 16:59 1.17509 -78.66777 21978 ft 360 kts 353°
2026-04-27 17:00 1.21636 -78.67313 21966 ft 360 kts 353°
2026-04-27 17:00 1.24967 -78.67745 21967 ft 360 kts 353°
2026-04-27 17:00 1.27453 -78.68067 21970 ft 360 kts 353°
2026-04-27 17:01 1.29912 -78.68386 21965 ft 360 kts 353°
2026-04-27 17:01 1.32398 -78.68709 21957 ft 360 kts 353°
2026-04-27 17:01 1.34881 -78.69026 21951 ft 360 kts 354°
2026-04-27 17:01 1.37370 -78.69336 21958 ft 360 kts 354°
2026-04-27 17:02 1.39860 -78.69643 21960 ft 360 kts 354°
2026-04-27 17:02 1.42348 -78.69949 21966 ft 361 kts 354°
2026-04-27 17:02 1.44842 -78.70256 21968 ft 361 kts 354°
2026-04-27 17:02 1.47340 -78.70565 21963 ft 362 kts 354°
2026-04-27 17:03 1.49840 -78.70874 21969 ft 362 kts 354°
2026-04-27 17:03 1.52343 -78.71184 21966 ft 362 kts 354°
2026-04-27 17:03 1.54844 -78.71494 21975 ft 362 kts 354°
2026-04-27 17:03 1.57349 -78.71805 21965 ft 362 kts 354°
2026-04-27 17:04 1.59852 -78.72115 21963 ft 362 kts 354°
2026-04-27 17:04 1.62354 -78.72425 21985 ft 362 kts 354°
2026-04-27 17:04 1.64858 -78.72736 21989 ft 363 kts 354°
2026-04-27 17:04 1.67361 -78.73046 21978 ft 363 kts 354°
2026-04-27 17:05 1.69865 -78.73357 21995 ft 362 kts 354°
2026-04-27 17:05 1.72333 -78.73663 21991 ft 362 kts 354°
2026-04-27 17:05 1.74838 -78.73973 21992 ft 362 kts 354°
2026-04-27 17:05 1.77336 -78.74283 21999 ft 362 kts 354°
2026-04-27 17:06 1.79836 -78.74593 21997 ft 362 kts 354°
2026-04-27 17:06 1.82333 -78.74901 21997 ft 362 kts 354°
2026-04-27 17:06 1.84835 -78.75196 21997 ft 362 kts 354°
2026-04-27 17:06 1.87339 -78.75483 21998 ft 362 kts 354°
2026-04-27 17:07 1.89841 -78.75768 21991 ft 362 kts 354°
2026-04-27 17:07 1.92346 -78.76054 21992 ft 361 kts 354°
2026-04-27 17:07 1.94798 -78.76335 21944 ft 349 kts 354°
2026-04-27 17:07 1.97195 -78.76610 21960 ft 349 kts 354°
2026-04-27 17:08 1.99696 -78.76895 21980 ft 375 kts 354°
2026-04-27 17:08 2.02369 -78.77200 22090 ft 398 kts 354°
2026-04-27 17:08 2.05189 -78.77523 22243 ft 417 kts 354°
2026-04-27 17:08 2.08136 -78.77861 22368 ft 434 kts 354°
2026-04-27 17:09 2.11181 -78.78212 22535 ft 447 kts 354°
2026-04-27 17:09 2.14309 -78.78572 22795 ft 456 kts 354°
2026-04-27 17:09 2.17484 -78.78939 23141 ft 461 kts 354°
2026-04-27 17:09 2.20686 -78.79309 23612 ft 462 kts 354°
2026-04-27 17:10 2.23872 -78.79678 24132 ft 460 kts 354°
2026-04-27 17:10 2.27010 -78.80041 24675 ft 459 kts 354°
2026-04-27 17:10 2.30182 -78.80407 25211 ft 458 kts 354°
2026-04-27 17:10 2.33352 -78.80773 25724 ft 458 kts 354°
2026-04-27 17:11 2.36524 -78.81138 26275 ft 458 kts 354°
2026-04-27 17:11 2.42840 -78.81866 27447 ft 456 kts 354°
2026-04-27 17:11 2.46002 -78.82231 28043 ft 456 kts 354°
2026-04-27 17:12 2.52310 -78.82958 29277 ft 455 kts 354°
2026-04-27 17:12 2.55417 -78.83316 29885 ft 437 kts 354°
2026-04-27 17:12 2.58371 -78.83658 29906 ft 419 kts 354°
2026-04-27 17:13 2.61177 -78.83983 29902 ft 403 kts 354°
2026-04-27 17:13 2.66672 -78.84616 30218 ft 398 kts 354°
2026-04-27 17:13 2.69410 -78.84931 30976 ft 393 kts 354°
2026-04-27 17:14 2.72107 -78.85241 31614 ft 389 kts 353°
2026-04-27 17:14 2.74790 -78.85550 31900 ft 385 kts 353°
2026-04-27 17:14 2.77459 -78.85858 31921 ft 389 kts 353°
2026-04-27 17:14 2.80197 -78.86174 31948 ft 404 kts 353°
2026-04-27 17:15 2.83046 -78.86503 31955 ft 419 kts 353°